Temperature
28 29 29 29 29 29 28 27 26 26 26 26 25 24 23 22 21 21 20 19 17 16 15 14 14 13 12 12 11 11 10 10 9 9 9 9 9 8 8 9 9 9 9 9
28 29 29 29 29 28 28 27 27 27 26 26 25 24 23 22 21 20 19 18 16 15 14 14 13 12 12 11 10 10 10 9 9 9 8 8 8 8 8 8 8 8 8 8
27 28 28 27 28 28 27 28 27 26 25 25 24 23 22 21 20 19 18 17 16 15 14 13 12 12 11 10 10 9 9 9 8 8 8 8 7 7 7 7 8 8 8 8
27 27 25 27 29 28 27 27 27 26 25 25 24 23 22 20 18 18 17 16 15 14 13 13 12 11 10 10 9 9 9 8 8 7 7 7 7 7 7 7 7 7 7 7
26 26 26 27 28 27 26 26 26 25 24 24 23 22 21 19 18 17 16 15 14 13 13 12 11 10 10 9 9 8 8 8 7 7 7 7 7 7 7 7 7 7 7 7
26 25 25 27 28 27 26 25 25 25 24 23 22 21 21 19 18 16 15 14 13 13 12 11 11 10 9 9 9 8 8 7 7 7 7 7 7 7 7 7 7 7 7 7
26 26 26 27 27 27 25 23 24 24 23 22 21 20 19 18 17 16 15 14 13 12 12 11 10 9 9 8 8 8 7 7 7 7 7 7 7 7 7 7 7 7 7 7
26 25 25 27 27 26 24 23 23 23 22 22 21 20 19 18 16 15 14 14 13 12 11 11 10 9 9 8 8 7 7 7 7 7 7 7 7 7 7 7 7 7 7 7
26 26 26 26 26 25 24 23 23 23 22 21 20 19 18 17 16 15 14 13 12 12 11 10 10 9 8 8 8 7 7 7 7 7 7 7 7 7 7 7 7 7 7 7
26 27 27 27 26 25 24 23 23 22 21 20 19 19 17 16 15 14 13 13 12 11 11 10 9 9 8 8 8 7 7 7 7 7 7 7 7 7 7 7 7 7 7 7
27 27 27 27 26 25 24 23 22 22 21 20 19 18 17 16 15 14 13 12 12 11 10 10 9 9 8 8 7 7 7 7 7 7 7 8 8 8 7 7 7 7 7 6
27 27 27 26 25 24 24 23 22 21 20 19 18 17 16 15 14 13 13 12 11 11 10 9 9 8 8 8 7 7 7 7 7 7 8 8 8 8 8 8 7 7 7 6
27 27 26 26 25 24 23 23 22 21 20 19 18 17 16 15 14 13 12 12 11 10 10 9 9 8 8 8 7 7 7 7 7 8 8 8 8 8 8 8 7 7 7 7
26 25 25 25 24 24 23 23 22 21 20 19 18 17 16 15 14 13 12 12 11 10 10 9 9 8 8 8 7 7 7 7 8 8 8 8 8 8 8 8 8 7 7 7
26 25 25 24 24 23 23 22 21 21 20 19 18 17 15 14 13 13 12 11 11 10 10 9 8 8 8 8 7 7 7 8 8 8 8 8 8 8 8 8 8 7 7 7
25 25 25 24 24 23 23 22 22 21 20 19 18 16 15 14 13 13 12 11 10 10 9 9 8 8 8 8 7 7 8 8 8 8 8 8 8 8 8 8 8 8 7 7
25 25 24 24 24 23 23 22 22 21 20 18 17 16 15 14 13 13 12 11 10 9 9 9 8 8 8 7 7 7 8 8 8 8 8 9 9 9 9 8 8 8 8 8
24 24 24 24 23 23 23 22 21 20 19 18 16 15 14 13 13 12 11 11 10 10 9 9 8 8 8 8 8 8 8 8 8 8 9 9 9 9 9 9 9 8 8 8
24 24 24 23 23 23 22 21 20 19 18 17 16 15 14 13 12 12 11 10 10 10 9 9 9 8 8 8 8 8 8 8 8 8 9 9 9 9 9 9 9 9 8 8
22 22 23 23 22 22 21 20 19 18 17 16 15 14 13 13 12 12 11 11 10 10 9 9 9 8 8 8 8 8 8 8 8 8 9 9 9 9 9 9 9 9 9 9
20 21 21 21 21 20 20 19 18 17 16 15 15 14 13 13 12 12 11 11 10 10 10 9 8 8 8 8 8 8 8 8 8 8 9 9 9 10 10 9 9 9 9 9
18 19 19 19 19 19 19 18 17 16 16 15 14 14 13 13 12 12 11 11 10 10 9 9 8 8 8 8 8 7 8 8 8 8 9 9 9 10 10 10 9 9 9 9
17 17 17 18 18 18 17 17 16 16 15 15 14 14 13 13 12 12 11 11 10 10 9 8 8 8 8 8 8 7 8 8 8 8 9 9 9 9 10 10 10 10 10 10
16 16 16 16 17 17 17 16 16 15 15 14 14 13 13 12 12 12 11 11 10 10 9 8 8 8 8 8 7 7 8 8 8 8 9 9 9 9 10 10 10 10 10 10
15 15 15 16 16 16 16 16 16 15 15 14 14 13 13 12 12 12 11 10 10 9 9 8 8 8 7 7 7 7 7 8 8 8 8 9 9 9 10 10 10 10 10 10
15 15 15 15 16 16 16 16 16 15 15 14 14 14 13 13 12 11 11 10 9 9 9 8 8 7 7 7 7 7 7 7 8 8 8 9 9 9 9 10 10 10 10 10
15 15 15 15 16 16 16 16 15 15 15 14 14 14 13 12 12 11 10 10 9 9 8 8 7 7 7 7 7 7 7 7 7 8 8 8 9 9 9 9 10 10 10 10
Wind_Speed
10 8 6 5 6 6 5 7 8 10 10 11 11 11 11 12 12 11 11 11 11 10 9 10 11 10 11 12 12 11 12 12 12 12 11 11 11 11 11 11 13 10 10 10
12 10 9 9 5 5 6 7 8 10 9 11 11 11 12 12 11 10 11 13 13 13 12 11 11 12 12 12 12 12 12 13 12 12 12 12 12 12 12 11 11 11 11 11
11 10 11 8 3 2 5 7 8 9 8 11 12 12 11 10 9 10 12 13 13 13 12 11 11 11 12 12 12 12 13 14 13 13 13 13 15 13 13 12 11 11 11 11
11 11 10 3 1 2 4 6 7 7 8 10 11 11 8 9 9 10 11 12 13 12 13 12 11 12 12 14 13 13 13 13 13 14 15 14 14 14 13 11 11 11 11 12
10 11 8 1 2 1 4 6 5 6 8 10 11 12 5 11 10 10 11 11 11 12 12 12 12 13 13 14 14 15 15 14 15 15 16 15 15 14 13 11 12 11 11 11
10 13 14 5 5 3 3 0 7 7 8 9 10 9 8 11 10 10 10 10 11 11 12 12 12 12 13 15 15 15 15 15 16 15 15 15 15 14 12 10 11 11 11 10
11 13 6 6 5 2 5 3 5 7 7 8 7 7 9 10 10 10 10 11 11 11 11 10 12 12 13 14 15 15 15 15 15 15 14 14 12 11 11 10 10 10 10 9
8 10 3 3 1 4 4 3 4 5 6 7 7 8 9 9 10 10 11 11 12 10 10 10 11 12 13 14 14 15 15 15 15 15 14 13 11 11 10 9 10 9 8 8
3 3 3 1 2 4 3 2 3 4 5 6 7 8 9 9 9 10 11 11 11 12 11 11 11 12 14 14 14 15 15 15 15 15 13 12 10 11 9 8 7 7 6 6
6 6 5 4 1 2 2 1 3 3 4 5 6 7 8 8 9 9 10 10 11 12 12 12 12 12 12 12 13 14 15 15 13 13 13 11 9 8 8 7 7 6 6 5
9 8 8 6 3 3 2 2 2 2 3 4 5 6 7 7 8 9 9 10 10 11 11 12 13 13 13 13 13 15 15 14 13 12 11 10 9 7 8 5 4 5 6 5
6 3 5 4 2 3 3 3 3 2 3 3 4 5 6 7 7 8 9 10 10 11 12 12 13 12 12 12 13 14 13 13 12 11 10 9 9 8 6 6 4 4 4 4
6 6 6 1 2 3 4 4 3 3 3 3 3 4 5 6 7 8 9 10 11 11 12 12 12 12 12 13 13 13 13 13 11 10 10 9 9 8 8 5 5 6 6 5
3 3 5 4 4 4 5 4 3 3 3 2 2 3 5 6 7 8 9 10 11 11 11 12 12 12 13 13 13 13 14 12 11 10 10 10 8 8 7 7 5 3 4 6
4 5 7 7 7 6 5 5 5 5 4 2 2 3 4 6 7 8 8 9 10 11 11 11 12 13 13 14 14 14 12 10 11 11 10 9 8 8 7 7 5 4 2 2
8 8 9 8 8 8 8 8 8 6 4 3 2 2 4 5 6 7 8 9 10 11 11 10 11 13 14 14 13 12 10 12 12 10 10 9 8 7 7 6 5 4 3 2
8 8 9 9 9 9 9 9 8 6 4 3 2 2 3 5 6 7 8 9 9 9 8 9 11 13 13 12 12 11 11 11 13 10 9 8 8 8 6 5 5 4 3 2
7 9 9 9 9 9 8 8 7 5 4 3 3 2 3 4 6 7 8 9 9 8 7 9 11 12 12 11 11 10 10 10 9 9 8 8 9 7 6 5 5 5 4 2
8 8 9 8 7 6 5 5 5 5 5 3 2 2 3 4 5 6 7 8 9 7 8 10 11 11 11 11 12 10 10 10 9 8 8 9 8 7 6 5 5 5 5 4
9 9 9 8 6 3 3 4 4 5 5 4 3 3 4 5 5 6 6 7 4 4 7 9 10 9 10 12 14 10 9 9 9 9 8 8 8 8 7 6 5 5 5 4
11 11 9 7 5 2 1 3 4 5 5 4 4 5 5 5 5 6 6 6 3 5 7 9 5 7 10 12 13 9 9 9 9 8 8 8 7 7 7 5 5 4 4 4
13 12 11 9 6 4 1 3 4 5 5 6 6 6 5 5 6 6 5 2 3 5 6 6 6 8 11 13 9 8 9 9 9 8 8 8 8 7 7 6 4 4 4 4
13 12 12 10 8 6 4 5 7 7 7 7 7 7 6 4 5 5 5 1 3 3 4 4 5 8 13 9 7 7 8 9 9 9 8 8 8 7 7 7 5 4 4 3
13 13 12 11 10 9 8 8 8 8 9 9 9 8 6 5 5 5 1 5 4 1 4 3 1 7 10 6 6 7 7 8 8 9 9 8 7 7 7 7 6 4 4 4
14 14 14 12 12 11 9 9 9 10 11 10 10 9 8 6 5 3 1 1 5 1 3 2 4 5 6 6 6 7 7 7 8 9 8 8 7 7 7 6 6 6 5 5
14 13 12 11 11 10 11 10 9 9 10 10 10 9 8 6 5 4 4 3 1 1 3 2 2 2 4 5 6 7 7 7 8 8 9 8 8 7 7 7 8 6 5 5
15 13 10 12 11 10 10 9 9 8 8 8 8 7 6 6 5 4 4 2 1 2 2 3 3 4 4 5 5 6 6 7 7 8 8 8 8 8 8 8 6 6 6 7
Wind_Direction
308 308 315 322 320 330 340 341 332 339 346 25 23 8 1 353 345 342 350 353 352 348 343 339 335 332 328 327 326 324 320 316 313 310 309 307 305 302 297 292 290 287 283 275
308 311 305 297 293 312 328 328 325 328 348 26 11 0 351 343 341 348 351 348 345 341 339 338 334 331 331 327 325 324 320 318 315 315 313 310 306 301 298 295 292 289 283 275
301 298 296 306 294 290 324 330 330 332 358 9 355 349 342 347 6 360 350 345 343 340 337 336 335 336 330 328 326 323 320 317 317 315 312 308 305 303 298 295 292 290 284 276
293 297 296 305 30 19 342 325 325 342 10 2 350 342 357 41 24 0 351 345 341 336 334 334 336 334 331 328 324 322 320 319 319 316 311 306 303 300 296 292 288 282 278 275
292 295 296 238 186 56 332 322 3 16 359 349 346 326 56 41 19 6 354 344 337 334 333 336 336 336 330 325 325 324 323 322 320 316 310 307 304 300 297 294 290 282 276 269
277 292 299 308 119 100 309 301 41 17 359 345 341 330 351 9 6 1 350 342 337 336 336 336 336 335 328 326 327 326 325 323 318 313 309 306 302 299 297 293 289 286 280 272
273 283 302 89 118 275 311 56 16 359 348 343 356 331 335 351 359 353 345 339 341 340 338 338 337 335 328 326 328 328 325 320 317 314 309 304 302 301 298 296 293 288 284 278
270 283 318 98 340 9 63 47 346 346 344 348 338 333 343 352 352 346 341 342 342 337 337 338 339 336 328 328 329 327 323 320 317 315 313 313 311 306 304 301 299 295 289 282
321 312 168 283 4 84 97 342 335 340 346 340 334 337 343 348 346 341 341 341 338 335 335 337 339 337 329 329 329 327 324 321 319 318 315 313 313 311 310 307 303 303 301 294
295 291 270 272 263 152 159 273 314 324 330 338 334 335 343 344 341 341 340 338 337 334 335 337 338 336 330 329 330 328 324 322 320 319 319 321 317 314 314 318 320 318 314 312
273 274 273 267 249 223 195 205 270 305 332 340 334 334 341 339 342 340 335 336 336 334 334 335 336 334 334 336 334 329 324 322 322 321 319 319 318 314 313 323 317 308 316 321
293 324 296 285 218 202 208 227 248 288 312 324 334 334 335 337 340 336 334 334 335 335 336 336 335 334 336 338 335 329 325 325 323 322 324 323 322 321 309 295 277 261 263 286
314 308 301 294 183 190 216 224 217 214 244 286 317 331 333 335 336 338 334 336 337 337 335 333 334 336 339 338 334 328 323 321 320 322 325 324 325 325 324 313 265 257 255 260
299 293 282 266 250 224 232 234 222 223 226 245 295 323 327 332 335 334 333 335 336 335 333 335 336 339 341 338 333 328 324 322 322 324 324 325 327 324 323 322 322 304 238 236
278 257 256 246 239 231 219 227 227 237 233 238 276 311 327 331 329 329 334 337 338 333 338 339 339 342 342 336 332 328 325 326 328 325 321 322 327 326 327 328 332 328 311 235
271 262 259 246 236 232 226 230 236 243 240 234 265 306 321 321 324 328 338 341 339 336 336 340 343 344 338 333 331 328 323 321 324 326 325 329 334 334 336 338 340 342 336 330
269 264 261 259 253 241 235 234 233 233 228 218 232 279 306 317 321 329 339 340 335 326 335 348 348 341 332 331 336 330 326 326 325 326 329 335 336 336 340 342 344 344 343 354
283 276 272 261 255 252 240 234 223 200 201 208 217 249 293 308 317 329 331 331 323 321 348 354 349 332 327 340 340 327 322 324 329 331 332 335 335 334 338 342 349 357 345 330
309 301 294 286 271 255 242 232 213 185 178 186 210 252 277 292 309 318 323 321 314 326 354 348 338 326 336 347 342 322 322 326 331 333 333 332 332 337 345 352 352 360 3 355
330 323 315 307 300 272 219 191 183 178 175 177 205 248 271 288 303 308 313 306 328 10 345 337 328 336 342 343 337 321 325 331 332 335 337 339 341 342 349 359 360 2 2 354
345 335 329 325 325 314 189 169 179 188 185 189 209 241 261 277 288 295 298 307 50 47 340 317 328 355 345 334 317 324 334 336 335 335 336 336 338 342 352 4 8 6 5 7
350 343 338 333 326 305 211 173 192 208 206 212 222 232 250 265 276 283 278 289 69 57 340 333 6 359 338 324 320 332 336 337 339 339 338 338 341 346 353 3 12 10 13 20
343 338 333 328 321 306 259 215 208 211 215 219 229 233 242 263 282 288 294 51 56 38 329 357 13 338 326 322 329 339 341 341 340 340 339 338 344 354 360 8 16 10 15 24
328 324 319 314 304 286 265 248 224 216 218 219 225 224 223 239 249 252 305 125 130 38 329 81 14 319 314 322 339 345 345 344 341 338 337 340 349 2 7 11 10 6 17 29
312 310 303 294 285 276 261 248 237 223 222 223 226 218 216 219 235 260 294 221 147 189 321 152 198 289 318 345 350 346 345 345 338 333 337 344 353 360 3 8 8 2 14 26
298 291 291 284 280 276 273 264 255 238 228 226 224 219 210 199 197 200 213 236 209 218 300 348 342 309 345 354 355 352 346 344 343 347 349 347 353 357 359 4 7 3 9 22
289 285 278 274 274 270 269 266 260 251 238 235 232 219 196 183 185 198 213 236 264 314 346 1 356 359 4 2 359 354 352 351 351 353 354 352 352 355 0 3 5 9 13 25
Height
1469 1464 1464 1466 1467 1466 1471 1475 1481 1480 1478 1478 1480 1482 1484 1486 1486 1487 1487 1487 1487 1485 1483 1481 1478 1475 1472 1469 1465 1461 1457 1454 1450 1446 1443 1439 1436 1433 1430 1428 1426 1424 1423 1422
1473 1466 1464 1465 1464 1467 1470 1472 1474 1476 1478 1477 1481 1483 1485 1485 1485 1486 1486 1486 1485 1483 1481 1478 1475 1472 1468 1465 1461 1457 1453 1448 1444 1440 1436 1433 1429 1426 1423 1420 1418 1416 1414 1414
1480 1470 1468 1474 1465 1467 1470 1469 1473 1479 1480 1479 1481 1483 1484 1484 1485 1486 1486 1485 1483 1481 1478 1475 1472 1468 1464 1461 1457 1452 1448 1444 1439 1435 1430 1426 1423 1419 1416 1413 1411 1409 1407 1405
1477 1477 1491 1473 1460 1463 1469 1470 1470 1473 1477 1480 1483 1483 1483 1484 1485 1485 1485 1483 1481 1478 1475 1472 1469 1465 1461 1457 1453 1448 1443 1439 1434 1429 1425 1420 1416 1413 1409 1406 1403 1401 1399 1397
1481 1481 1477 1468 1464 1467 1472 1474 1472 1476 1480 1481 1482 1482 1482 1484 1484 1484 1483 1481 1479 1476 1473 1469 1465 1461 1457 1453 1448 1444 1439 1434 1429 1424 1419 1414 1410 1406 1403 1400 1396 1393 1391 1390
1478 1485 1486 1469 1462 1466 1471 1477 1477 1478 1481 1482 1482 1483 1482 1484 1483 1482 1481 1479 1476 1473 1470 1466 1462 1458 1453 1449 1445 1440 1435 1429 1424 1419 1414 1409 1405 1401 1397 1394 1390 1387 1385 1383
1477 1479 1470 1463 1464 1467 1478 1484 1479 1479 1481 1481 1483 1484 1484 1482 1482 1480 1479 1476 1473 1470 1467 1463 1459 1454 1450 1446 1441 1436 1430 1425 1419 1415 1410 1405 1401 1397 1393 1389 1385 1382 1379 1377
1472 1481 1479 1464 1464 1470 1478 1478 1478 1479 1480 1481 1482 1482 1482 1481 1480 1478 1476 1474 1471 1467 1464 1460 1456 1451 1447 1442 1437 1432 1426 1421 1416 1411 1406 1402 1397 1392 1389 1385 1381 1378 1375 1373
1467 1472 1468 1466 1467 1471 1474 1476 1477 1478 1480 1480 1481 1481 1480 1479 1478 1476 1474 1471 1468 1465 1461 1457 1453 1449 1444 1439 1433 1428 1423 1417 1412 1407 1403 1399 1394 1390 1386 1382 1379 1375 1373 1370
1463 1460 1461 1463 1465 1469 1472 1474 1476 1477 1478 1478 1479 1479 1478 1477 1476 1474 1471 1469 1466 1462 1458 1454 1450 1446 1441 1436 1430 1425 1420 1414 1410 1405 1400 1396 1392 1387 1383 1380 1376 1373 1370 1368
1459 1458 1459 1461 1463 1466 1469 1471 1474 1475 1476 1477 1477 1477 1476 1475 1473 1471 1469 1466 1463 1460 1456 1452 1447 1443 1438 1433 1428 1422 1417 1412 1407 1403 1398 1393 1389 1386 1382 1378 1375 1372 1369 1367
1456 1455 1458 1459 1462 1464 1467 1469 1471 1473 1474 1475 1475 1475 1474 1473 1471 1469 1467 1464 1461 1457 1453 1449 1445 1440 1435 1431 1426 1420 1415 1410 1406 1401 1397 1392 1388 1383 1380 1377 1373 1370 1367 1365
1453 1454 1456 1457 1460 1463 1465 1467 1469 1471 1472 1473 1473 1472 1472 1470 1469 1467 1464 1461 1458 1455 1451 1447 1442 1438 1433 1428 1423 1419 1414 1409 1405 1400 1396 1391 1386 1382 1378 1375 1371 1368 1366 1364
1453 1455 1457 1458 1459 1461 1463 1464 1466 1468 1469 1470 1470 1470 1469 1468 1466 1464 1462 1459 1456 1452 1448 1444 1440 1436 1431 1426 1421 1417 1412 1408 1404 1399 1395 1390 1386 1381 1377 1373 1370 1367 1365 1363
1451 1453 1455 1455 1457 1458 1460 1462 1463 1465 1466 1467 1467 1467 1466 1465 1464 1462 1459 1456 1453 1450 1446 1442 1438 1434 1429 1424 1419 1415 1411 1407 1403 1398 1394 1390 1386 1381 1377 1374 1370 1367 1364 1362
1449 1450 1451 1452 1453 1455 1456 1458 1460 1461 1462 1464 1464 1464 1464 1463 1461 1459 1457 1454 1451 1447 1444 1440 1436 1431 1427 1422 1418 1414 1410 1406 1403 1398 1393 1389 1386 1381 1377 1374 1371 1367 1364 1362
1446 1447 1448 1449 1450 1451 1452 1453 1455 1457 1458 1460 1461 1461 1461 1460 1458 1457 1454 1451 1448 1445 1442 1438 1434 1429 1425 1421 1417 1413 1409 1405 1402 1398 1394 1390 1386 1382 1378 1375 1371 1368 1365 1363
1444 1445 1445 1445 1446 1447 1448 1449 1451 1453 1455 1457 1458 1458 1457 1457 1455 1453 1451 1448 1446 1443 1440 1436 1432 1427 1424 1420 1416 1412 1409 1405 1401 1398 1394 1390 1386 1383 1379 1376 1373 1369 1366 1363
1443 1442 1442 1442 1443 1443 1444 1447 1448 1450 1452 1454 1454 1455 1455 1454 1452 1450 1448 1446 1443 1441 1437 1434 1429 1426 1422 1419 1415 1411 1408 1405 1401 1398 1395 1391 1387 1384 1381 1377 1374 1371 1368 1365
1442 1441 1441 1441 1441 1441 1442 1444 1446 1448 1449 1451 1452 1452 1452 1451 1450 1448 1446 1443 1441 1438 1435 1431 1427 1424 1421 1417 1414 1410 1408 1405 1402 1398 1395 1392 1389 1385 1382 1379 1376 1373 1370 1367
1442 1441 1441 1440 1440 1440 1441 1442 1444 1446 1447 1448 1448 1449 1449 1448 1447 1445 1443 1441 1438 1435 1432 1429 1426 1422 1419 1416 1412 1410 1408 1405 1402 1399 1396 1393 1390 1387 1384 1380 1378 1375 1372 1369
1443 1442 1441 1440 1440 1440 1440 1441 1442 1443 1444 1445 1445 1445 1445 1444 1443 1442 1440 1438 1435 1432 1430 1427 1424 1421 1418 1414 1412 1410 1407 1405 1402 1399 1397 1394 1391 1388 1385 1382 1380 1377 1375 1372
1445 1443 1441 1440 1439 1439 1438 1438 1438 1439 1440 1440 1441 1440 1440 1440 1439 1439 1438 1435 1432 1429 1427 1425 1422 1419 1416 1413 1411 1409 1407 1404 1402 1400 1397 1395 1392 1390 1387 1384 1382 1380 1377 1375
1444 1442 1440 1438 1437 1436 1435 1434 1434 1434 1434 1435 1435 1435 1435 1435 1435 1435 1434 1431 1429 1427 1425 1422 1420 1417 1415 1413 1411 1409 1407 1404 1402 1400 1398 1396 1394 1392 1389 1387 1385 1382 1380 1378
1442 1439 1437 1435 1434 1432 1430 1430 1429 1428 1429 1429 1429 1429 1429 1430 1430 1431 1430 1428 1426 1424 1422 1420 1417 1415 1414 1412 1410 1408 1406 1404 1402 1400 1398 1397 1395 1393 1391 1389 1387 1385 1383 1381
1437 1435 1432 1430 1429 1427 1426 1424 1423 1422 1422 1422 1423 1423 1424 1424 1425 1426 1425 1425 1424 1421 1420 1418 1416 1414 1412 1411 1409 1407 1405 1404 1402 1400 1399 1398 1396 1395 1393 1391 1390 1388 1386 1385
1432 1429 1426 1423 1421 1420 1419 1418 1417 1416 1416 1416 1417 1418 1418 1419 1420 1422 1422 1422 1421 1420 1418 1416 1414 1413 1411 1409 1407 1406 1405 1403 1402 1400 1399 1398 1397 1396 1395 1393 1392 1391 1389 1388